Location: Baix
(44.7118°N, 4.7648°E)
Time: 07:40:58
(UTC+00:00)

Vanguard 1 - Pass Details

Date: 28 November 2020
Orbit: 648 x 3834 km, 34.3° (Epoch: 21 January)

Event Time Altitude Azimuth Distance (km) Brightness Sun altitude
Rises 10:34:24 0° 272° (W) 5,212 13.6 22.7°
Reaches altitude 10° 10:37:52 10° 262° (W) 4,617 13.5 22.8°
Maximum altitude 10:49:13 31° 207° (SSW) 4,250 14.4 23.2°
Drops below altitude 10° 11:05:52 10° 156° (SSE) 6,749 15.9 23.6°
Sets 11:12:35 0° 148° (SSE) 7,940 15.7 23.8°
